Time,TemperatureF,DewpointF,PressureIn,WindDirection,WindDirectionDegrees,WindSpeedMPH,WindSpeedGustMPH,Humidity,HourlyPrecipIn,Conditions,Clouds,dailyrainin,SoftwareType,DateUTC
2013-06-15 06:43:00,65.0,-99.9,-100.00,East,95,7.0,11.0,-999,0.00,,,-99.99,,2013-06-15 11:43:00,
2013-06-15 06:53:00,65.0,-99.9,-100.00,East,95,9.0,14.0,-999,0.00,,,-99.99,,2013-06-15 11:53:00,
2013-06-15 07:01:00,65.0,65.0,-100.00,ESE,105,8.0,12.0,99,0.00,,,-99.99,,2013-06-15 12:01:00,
2013-06-15 07:12:00,65.0,65.0,-100.00,ESE,110,9.0,15.0,99,0.00,,,-99.99,,2013-06-15 12:12:00,
2013-06-15 07:22:00,65.0,65.0,-100.00,East,95,7.0,11.0,99,0.00,,,-99.99,,2013-06-15 12:22:00,
2013-06-15 07:33:00,65.0,65.0,-100.00,East,95,7.0,11.0,99,0.00,,,-99.99,,2013-06-15 12:33:00,
2013-06-15 07:43:00,66.0,66.0,-100.00,ESE,105,10.0,13.0,99,0.00,,,-99.99,,2013-06-15 12:43:00,
2013-06-15 07:52:00,67.0,67.0,-100.00,ESE,110,7.0,12.0,99,0.00,,,-99.99,,2013-06-15 12:52:00,
2013-06-15 08:02:00,67.0,67.0,-100.00,SE,125,7.0,11.0,99,0.00,,,-99.99,,2013-06-15 13:02:00,
2013-06-15 08:11:00,67.0,67.0,-100.00,SSE,160,6.0,11.0,99,0.00,,,-99.99,,2013-06-15 13:11:00,
2013-06-15 08:22:00,67.0,67.0,-100.00,SSE,150,6.0,11.0,99,0.00,,,-99.99,,2013-06-15 13:22:00,
2013-06-15 08:32:00,67.0,67.0,-100.00,SSE,150,6.0,11.0,99,0.00,,,-99.99,,2013-06-15 13:32:00,
2013-06-15 08:44:00,68.0,-99.9,-100.00,SSE,160,6.0,7.0,-999,0.00,,,-99.99,,2013-06-15 13:44:00,
2013-06-15 08:53:00,70.0,70.0,-100.00,South,170,7.0,11.0,99,0.00,,,-99.99,,2013-06-15 13:53:00,
2013-06-15 09:01:00,70.0,70.0,-100.00,South,170,11.0,14.0,99,0.00,,,-99.99,,2013-06-15 14:01:00,
2013-06-15 09:12:00,70.0,-99.9,-100.00,SSE,165,10.0,16.0,-999,0.00,,,-99.99,,2013-06-15 14:12:00,
2013-06-15 09:22:00,71.0,71.0,-100.00,SSE,165,12.0,18.0,99,0.00,,,-99.99,,2013-06-15 14:22:00,
2013-06-15 09:34:00,71.0,71.0,-100.00,SSE,165,12.0,18.0,99,0.00,,,-99.99,,2013-06-15 14:34:00,
2013-06-15 10:02:00,74.0,74.0,-100.00,South,175,10.0,16.0,99,0.00,,,-99.99,,2013-06-15 15:02:00,
2013-06-15 10:12:00,74.0,-99.9,-100.00,South,170,14.0,17.0,-999,0.00,,,-99.99,,2013-06-15 15:12:00,
2013-06-15 10:22:00,75.0,75.0,-100.00,South,170,12.0,17.0,99,0.00,,,-99.99,,2013-06-15 15:22:00,
2013-06-15 10:43:00,74.0,-99.9,-100.00,South,175,6.0,15.0,-999,0.00,,,-99.99,,2013-06-15 15:43:00,
2013-06-15 10:53:00,73.0,73.0,-100.00,SSE,165,9.0,16.0,99,0.00,,,-99.99,,2013-06-15 15:53:00,
2013-06-15 11:01:00,73.0,73.0,-100.00,SSE,165,9.0,16.0,99,0.00,,,-99.99,,2013-06-15 16:01:00,
2013-06-15 11:11:00,74.0,74.0,-100.00,South,180,9.0,16.0,99,0.00,,,-99.99,,2013-06-15 16:11:00,
2013-06-15 11:22:00,74.0,74.0,-100.00,South,180,9.0,16.0,99,0.00,,,-99.99,,2013-06-15 16:22:00,
2013-06-15 11:33:00,74.0,74.0,-100.00,South,180,9.0,16.0,99,0.00,,,-99.99,,2013-06-15 16:33:00,
2013-06-15 12:02:00,74.0,74.0,-100.00,South,180,7.0,12.0,99,0.00,,,-99.99,,2013-06-15 17:02:00,
2013-06-15 12:22:00,75.0,75.0,-100.00,SSW,210,7.0,9.0,99,0.00,,,-99.99,,2013-06-15 17:22:00,
2013-06-15 12:52:00,76.0,76.0,-100.00,SSW,210,7.0,11.0,99,0.00,,,-99.99,,2013-06-15 17:52:00,
2013-06-15 13:01:00,75.0,75.0,-100.00,SW,215,7.0,11.0,99,0.00,,,-99.99,,2013-06-15 18:01:00,
2013-06-15 13:12:00,74.0,74.0,-100.00,South,190,9.0,13.0,99,0.00,,,-99.99,,2013-06-15 18:12:00,
2013-06-15 13:22:00,75.0,75.0,-100.00,South,190,4.0,11.0,99,0.00,,,-99.99,,2013-06-15 18:22:00,
2013-06-15 13:32:00,75.0,75.0,-100.00,South,190,4.0,11.0,99,0.00,,,-99.99,,2013-06-15 18:32:00,
2013-06-15 13:43:00,75.0,-99.9,-100.00,South,175,7.0,9.0,-999,0.00,,,-99.99,,2013-06-15 18:43:00,
2013-06-15 13:53:00,75.0,75.0,-100.00,South,175,7.0,11.0,99,0.00,,,-99.99,,2013-06-15 18:53:00,
2013-06-15 14:01:00,76.0,76.0,-100.00,South,175,7.0,11.0,99,0.00,,,-99.99,,2013-06-15 19:01:00,
2013-06-15 14:11:00,76.0,76.0,-100.00,SSW,205,7.0,12.0,99,0.00,,,-99.99,,2013-06-15 19:11:00,
2013-06-15 14:22:00,76.0,76.0,-100.00,SW,215,7.0,14.0,99,0.00,,,-99.99,,2013-06-15 19:22:00,
2013-06-15 14:52:00,76.0,76.0,-100.00,SW,215,6.0,9.0,99,0.00,,,-99.99,,2013-06-15 19:52:00,
2013-06-15 15:02:00,76.0,76.0,-100.00,SSW,210,4.0,8.0,99,0.00,,,-99.99,,2013-06-15 20:02:00,
2013-06-15 15:11:00,76.0,76.0,-100.00,East,100,1.0,6.0,99,0.00,,,-99.99,,2013-06-15 20:11:00,
2013-06-15 15:22:00,76.0,76.0,-100.00,WSW,240,2.0,6.0,99,0.00,,,-99.99,,2013-06-15 20:22:00,
2013-06-15 15:33:00,76.0,76.0,-100.00,WSW,240,2.0,6.0,99,0.00,,,-99.99,,2013-06-15 20:33:00,
2013-06-15 15:43:00,76.0,76.0,-100.00,East,95,2.0,6.0,99,0.00,,,-99.99,,2013-06-15 20:43:00,
2013-06-15 15:53:00,77.0,-99.9,-100.00,SSE,150,6.0,7.0,-999,0.00,,,-99.99,,2013-06-15 20:53:00,
2013-06-15 16:01:00,77.0,77.0,-100.00,SE,145,8.0,11.0,99,0.00,,,-99.99,,2013-06-15 21:01:00,
2013-06-15 16:12:00,77.0,-99.9,-100.00,SSE,165,10.0,14.0,-999,0.00,,,-99.99,,2013-06-15 21:12:00,
2013-06-15 16:22:00,76.0,76.0,-100.00,SSE,150,13.0,18.0,99,0.00,,,-99.99,,2013-06-15 21:22:00,
2013-06-15 16:33:00,76.0,76.0,-100.00,SSE,150,13.0,18.0,99,0.00,,,-99.99,,2013-06-15 21:33:00,
2013-06-15 16:42:00,76.0,76.0,-100.00,South,170,15.0,21.0,99,0.00,,,-99.99,,2013-06-15 21:42:00,
2013-06-15 16:52:00,76.0,76.0,-100.00,SSE,165,12.0,20.0,99,0.00,,,-99.99,,2013-06-15 21:52:00,
2013-06-15 17:01:00,76.0,76.0,-100.00,SSE,165,12.0,20.0,99,0.00,,,-99.99,,2013-06-15 22:01:00,
2013-06-15 17:22:00,78.0,78.0,-100.00,SSW,195,4.0,9.0,99,0.00,,,-99.99,,2013-06-15 22:22:00,
2013-06-15 17:43:00,79.0,-99.9,-100.00,SW,220,4.0,7.0,-999,0.00,,,-99.99,,2013-06-15 22:43:00,
2013-06-15 17:53:00,79.0,78.0,-100.00,SSW,210,6.0,9.0,99,0.00,,,-99.99,,2013-06-15 22:53:00,
2013-06-15 18:02:00,79.0,79.0,-100.00,SSW,205,8.0,13.0,99,0.00,,,-99.99,,2013-06-15 23:02:00,
2013-06-15 18:12:00,79.0,-99.9,-100.00,SSW,210,7.0,12.0,-999,0.00,,,-99.99,,2013-06-15 23:12:00,
2013-06-15 18:22:00,79.0,79.0,-100.00,South,185,4.0,12.0,99,0.00,,,-99.99,,2013-06-15 23:22:00,
2013-06-15 19:22:00,80.0,80.0,-100.00,South,170,8.0,16.0,99,0.00,,,-99.99,,2013-06-16 00:22:00,
2013-06-15 19:43:00,75.0,75.0,-100.00,SSE,160,8.0,13.0,99,0.00,,,-99.99,,2013-06-16 00:43:00,
2013-06-15 19:52:00,74.0,74.0,-100.00,SSE,165,8.0,10.0,99,0.00,,,-99.99,,2013-06-16 00:52:00,
2013-06-15 20:02:00,75.0,-99.9,-100.00,SSW,200,3.0,8.0,-999,0.00,,,-99.99,,2013-06-16 01:02:00,
2013-06-15 20:11:00,75.0,75.0,-100.00,SW,225,5.0,7.0,99,0.00,,,-99.99,,2013-06-16 01:11:00,
2013-06-15 20:22:00,75.0,75.0,-100.00,SW,225,3.0,6.0,99,0.00,,,-99.99,,2013-06-16 01:22:00,
2013-06-15 20:33:00,75.0,75.0,-100.00,SW,225,3.0,6.0,99,0.00,,,-99.99,,2013-06-16 01:33:00,
2013-06-15 20:42:00,75.0,75.0,-100.00,SW,215,4.0,6.0,99,0.00,,,-99.99,,2013-06-16 01:42:00,
2013-06-15 20:53:00,75.0,-99.9,-100.00,South,185,3.0,7.0,-999,0.00,,,-99.99,,2013-06-16 01:53:00,
2013-06-15 21:02:00,74.0,74.0,-100.00,SSW,195,6.0,9.0,99,0.00,,,-99.99,,2013-06-16 02:02:00,
2013-06-15 21:12:00,74.0,74.0,-100.00,SSW,205,12.0,22.0,99,0.00,,,-99.99,,2013-06-16 02:12:00,
2013-06-15 21:22:00,73.0,73.0,-100.00,SW,220,10.0,20.0,99,0.00,,,-99.99,,2013-06-16 02:22:00,
2013-06-15 21:33:00,73.0,73.0,-100.00,SW,220,10.0,20.0,99,0.00,,,-99.99,,2013-06-16 02:33:00,
2013-06-15 21:43:00,72.0,-99.9,-100.00,SW,225,12.0,27.0,-999,0.00,,,-99.99,,2013-06-16 02:43:00,
2013-06-15 21:53:00,71.0,71.0,-100.00,SSW,200,13.0,27.0,99,0.00,,,-99.99,,2013-06-16 02:53:00,
2013-06-15 22:02:00,71.0,-99.9,-100.00,SSW,210,15.0,27.0,-999,0.00,,,-99.99,,2013-06-16 03:02:00,
2013-06-15 22:12:00,70.0,70.0,-100.00,SW,215,14.0,23.0,99,0.00,,,-99.99,,2013-06-16 03:12:00,
2013-06-15 22:22:00,70.0,70.0,-100.00,SSW,205,14.0,26.0,99,0.00,,,-99.99,,2013-06-16 03:22:00,
2013-06-15 22:33:00,70.0,70.0,-100.00,SSW,205,14.0,26.0,99,0.00,,,-99.99,,2013-06-16 03:33:00,
2013-06-15 22:43:00,70.0,-99.9,-100.00,SW,225,14.0,24.0,-999,0.00,,,-99.99,,2013-06-16 03:43:00,
2013-06-15 22:53:00,69.0,69.0,-100.00,SSW,210,13.0,22.0,99,0.00,,,-99.99,,2013-06-16 03:53:00,
2013-06-15 23:02:00,69.0,69.0,-100.00,SW,220,12.0,18.0,99,0.00,,,-99.99,,2013-06-16 04:02:00,
2013-06-15 23:12:00,69.0,69.0,-100.00,SSW,210,9.0,18.0,99,0.00,,,-99.99,,2013-06-16 04:12:00,
2013-06-15 23:23:00,68.0,68.0,-100.00,SSW,210,9.0,15.0,99,0.00,,,-99.99,,2013-06-16 04:23:00,
2013-06-15 23:33:00,68.0,68.0,-100.00,SSW,210,9.0,15.0,99,0.00,,,-99.99,,2013-06-16 04:33:00,
2013-06-15 23:42:00,68.0,68.0,-100.00,SSW,195,5.0,11.0,99,0.00,,,-99.99,,2013-06-16 04:42:00,
2013-06-15 23:53:00,68.0,68.0,-100.00,SSW,210,5.0,7.0,99,0.00,,,-99.99,,2013-06-16 04:53:00,